This is the latest recevied weather packets stored in our database for station/object N4WFF. If no packets are shown the sender has not sent any weather packets the latest 10 day(s).
| Time | Temp. | Humidity | Pressure | Rain* | Wind** | Luminosity | Snow |
|---|---|---|---|---|---|---|---|
| 1777990555 | 20° C | 68% | 1016.5 hPa | 0 mm | - | 341 W/m² | - |
| 1777989956 | 20° C | 72% | 1016.4 hPa | 0 mm | - | 531 W/m² | - |
| 1777989656 | 19.44° C | 71% | 1016.5 hPa | 0 mm | - | 504 W/m² | - |
| 1777989356 | 19.44° C | 72% | 1016.4 hPa | 0 mm | - | 480 W/m² | - |
| 1777989058 | 18.89° C | 73% | 1016.4 hPa | 0 mm | - | 473 W/m² | - |
| 1777988757 | 18.89° C | 73% | 1016.3 hPa | 0 mm | - | 467 W/m² | - |
| 1777988459 | 18.89° C | 73% | 1016.2 hPa | 0 mm | - | 371 W/m² | - |
| 1777988156 | 18.33° C | 76% | 1016.2 hPa | 0 mm | - | 466 W/m² | - |
| 1777987860 | 17.78° C | 77% | 1016.2 hPa | 0 mm | - | 352 W/m² | - |
| 1777987555 | 17.22° C | 77% | 1016.1 hPa | 0 mm | - | 372 W/m² | - |
| 1777987256 | 16.67° C | 78% | 1016.1 hPa | 0 mm | - | 373 W/m² | - |
| 1777986955 | 16.11° C | 81% | 1016.2 hPa | 0 mm | - | 282 W/m² | - |
| 1777986655 | 15.56° C | 83% | 1016.1 hPa | 0 mm | - | 255 W/m² | - |
| 1777986356 | 15.56° C | 85% | 1016 hPa | 0 mm | - | 335 W/m² | - |
| 1777986055 | 14.44° C | 87% | 1016 hPa | 0 mm | - | 306 W/m² | - |
| 1777985763 | 13.89° C | 92% | 1016.2 hPa | 0 mm | - | 294 W/m² | - |
| 1777985456 | 12.78° C | 96% | 1016.2 hPa | 0 mm | - | 291 W/m² | - |
| 1777985156 | 12.22° C | 96% | 1016.3 hPa | 0 mm | - | 306 W/m² | - |
| 1777984855 | 11.67° C | 97% | 1016.2 hPa | 0 mm | - | 237 W/m² | - |
| 1777984556 | 10.56° C | 97% | 1016.2 hPa | 0 mm | - | 224 W/m² | - |
| 1777984256 | 10.56° C | 97% | 1016.2 hPa | 0 mm | - | 142 W/m² | - |
| 1777983955 | 10° C | 97% | 1016.2 hPa | 0 mm | - | 121 W/m² | - |
| 1777983655 | 9.44° C | 97% | 1016.2 hPa | 0 mm | - | 116 W/m² | - |
| 1777983355 | 9.44° C | 97% | 1016 hPa | 0 mm | - | 117 W/m² | - |
| 1777983055 | 8.89° C | 97% | 1015.9 hPa | 0 mm | - | 80 W/m² | - |
* Rain latest hour (hover to see other rain measurements)
** Current wind speed in m/s (hover to see current wind gust speed)